• In Lithuania
  • List of Countries
  • For 7 days
  • Water Temperature
  • Satellite Maps
  • Weather Map
  • Weather Widgets
  • user-avatar
    Login

    Hourly Weather Ventyan

    Today, 17 October, Wednesday

    Time Temperature Precipitation Wind Pressure Humidity
    00:00 +25°C° 0.2 mm 0 mps 744 mmHg 85%
    01:00 +25°C° 0 mm 0 mps 744 mmHg 89%
    02:00 +24°C° 1.7 mm 0 mps 744 mmHg 91%
    03:00 +26°C° 1.7 mm 1 mps 744 mmHg 92%
    04:00 +26°C° 1.7 mm 1 mps 744 mmHg 94%
    05:00 +26°C° 1.2 mm 1 mps 744 mmHg 94%
    06:00 +26°C° 1.2 mm 1 mps 744 mmHg 94%
    07:00 +27°C° 0 mm 1 mps 744 mmHg 92%
    08:00 +29°C° 0.3 mm 1 mps 744 mmHg 85%
    09:00 +30°C° 0.3 mm 1 mps 744 mmHg 78%
    10:00 +32°C° 0.3 mm 1 mps 744 mmHg 71%
    11:00 +33°C° 0 mm 1 mps 743 mmHg 65%
    12:00 +34°C° 0 mm 1 mps 743 mmHg 59%
    13:00 +36°C° 0 mm 1 mps 742 mmHg 53%
    14:00 +35°C° 0 mm 1 mps 742 mmHg 55%
    15:00 +35°C° 0 mm 1 mps 741 mmHg 57%
    16:00 +34°C° 0 mm 1 mps 741 mmHg 59%
    17:00 +33°C° 0 mm 1 mps 741 mmHg 65%
    18:00 +31°C° 0 mm 1 mps 741 mmHg 71%
    19:00 +29°C° 0 mm 1 mps 742 mmHg 77%
    20:00 +29°C° 0.4 mm 1 mps 742 mmHg 80%
    21:00 +28°C° 0.4 mm 1 mps 742 mmHg 82%
    22:00 +28°C° 0.4 mm 1 mps 743 mmHg 85%
    23:00 +25°C° 0.9 mm 0 mps 743 mmHg 86%

    Tomorrow, 18 October, Thursday

    Time Temperature Precipitation Wind Pressure Humidity
    00:00 +25°C° 0.9 mm 0 mps 743 mmHg 87%
    01:00 +25°C° 0.9 mm 0 mps 743 mmHg 89%
    02:00 +25°C° 1.1 mm 0 mps 743 mmHg 89%
    03:00 +24°C° 1.1 mm 0 mps 742 mmHg 90%
    04:00 +26°C° 1.1 mm 1 mps 742 mmHg 91%
    05:00 +26°C° 0.6 mm 1 mps 743 mmHg 91%
    06:00 +26°C° 0.6 mm 1 mps 743 mmHg 91%
    07:00 +27°C° 0.6 mm 1 mps 743 mmHg 92%
    08:00 +28°C° 0.5 mm 1 mps 744 mmHg 86%
    09:00 +29°C° 0.5 mm 1 mps 744 mmHg 81%
    10:00 +31°C° 0.5 mm 1 mps 745 mmHg 76%
    11:00 +31°C° 0.8 mm 1 mps 744 mmHg 72%
    12:00 +32°C° 0.8 mm 1 mps 744 mmHg 69%
    13:00 +33°C° 0.8 mm 1 mps 743 mmHg 65%
    14:00 +32°C° 0 mm 1 mps 743 mmHg 67%
    15:00 +32°C° 0 mm 1 mps 742 mmHg 70%
    16:00 +31°C° 0 mm 1 mps 742 mmHg 72%
    17:00 +30°C° 0 mm 1 mps 742 mmHg 76%
    18:00 +29°C° 0 mm 1 mps 743 mmHg 80%
    19:00 +28°C° 0 mm 1 mps 743 mmHg 84%
    20:00 +28°C° 0 mm 1 mps 744 mmHg 85%
    21:00 +28°C° 0 mm 1 mps 744 mmHg 86%
    22:00 +27°C° 0 mm 1 mps 745 mmHg 86%
    23:00 +27°C° 0.1 mm 1 mps 745 mmHg 87%

    Day after tomorrow, 19 October, Friday

    Time Temperature Precipitation Wind Pressure Humidity
    00:00 +27°C° 0.1 mm 1 mps 745 mmHg 88%
    01:00 +26°C° 0.1 mm 1 mps 744 mmHg 89%
    02:00 +26°C° 0 mm 1 mps 744 mmHg 90%
    03:00 +26°C° 0 mm 1 mps 744 mmHg 90%
    04:00 +25°C° 0 mm 1 mps 744 mmHg 91%
    05:00 +26°C° 0 mm 1 mps 744 mmHg 90%
    06:00 +26°C° 0 mm 1 mps 745 mmHg 89%
    07:00 +24°C° 0 mm 0 mps 745 mmHg 88%
    08:00 +28°C° 0 mm 1 mps 745 mmHg 80%
    09:00 +30°C° 0 mm 1 mps 746 mmHg 72%
    10:00 +32°C° 0 mm 1 mps 746 mmHg 65%
    11:00 +33°C° 0.1 mm 1 mps 745 mmHg 62%
    12:00 +34°C° 0.1 mm 1 mps 744 mmHg 60%
    13:00 +35°C° 0.1 mm 2 mps 744 mmHg 57%
    14:00 +35°C° 0.2 mm 2 mps 743 mmHg 59%
    15:00 +34°C° 0.2 mm 1 mps 743 mmHg 60%
    16:00 +33°C° 0.2 mm 1 mps 742 mmHg 61%
    17:00 +32°C° 0.1 mm 1 mps 743 mmHg 67%
    18:00 +30°C° 0.1 mm 1 mps 743 mmHg 72%
    19:00 +29°C° 0.1 mm 1 mps 744 mmHg 78%
    20:00 +28°C° 1 mm 1 mps 745 mmHg 80%
    21:00 +26°C° 1 mm 0 mps 745 mmHg 82%
    22:00 +25°C° 1 mm 0 mps 746 mmHg 84%
    23:00 +25°C° 0.6 mm 0 mps 746 mmHg 85%

    20 October, Saturday

    Time Temperature Precipitation Wind Pressure Humidity
    00:00 +25°C° 0.6 mm 0 mps 746 mmHg 86%
    01:00 +25°C° 0.6 mm 0 mps 745 mmHg 87%
    02:00 +24°C° 0 mm 0 mps 745 mmHg 88%
    03:00 +24°C° 0 mm 0 mps 745 mmHg 89%
    04:00 +26°C° 0 mm 1 mps 745 mmHg 89%
    05:00 +26°C° 0.1 mm 1 mps 745 mmHg 89%
    06:00 +26°C° 0.1 mm 1 mps 746 mmHg 88%
    07:00 +27°C° 0.1 mm 1 mps 746 mmHg 88%
    08:00 +28°C° 0.1 mm 1 mps 747 mmHg 82%
    09:00 +30°C° 0.1 mm 1 mps 747 mmHg 76%
    10:00 +31°C° 0.1 mm 1 mps 747 mmHg 69%
    11:00 +32°C° 0 mm 1 mps 746 mmHg 65%
    12:00 +33°C° 0 mm 1 mps 745 mmHg 61%
    13:00 +34°C° 0 mm 1 mps 745 mmHg 58%
    14:00 +34°C° 0 mm 1 mps 744 mmHg 59%
    15:00 +33°C° 0 mm 1 mps 744 mmHg 60%
    16:00 +31°C° 0 mm 0 mps 743 mmHg 61%
    17:00 +30°C° 0 mm 0 mps 744 mmHg 66%
    18:00 +28°C° 0 mm 0 mps 744 mmHg 72%
    19:00 +27°C° 0 mm 0 mps 745 mmHg 77%
    20:00 +26°C° 0 mm 0 mps 745 mmHg 78%
    21:00 +26°C° 0 mm 0 mps 746 mmHg 80%
    22:00 +26°C° 0 mm 0 mps 746 mmHg 81%
    23:00 +27°C° 0 mm 1 mps 746 mmHg 83%

    21 October, Sunday

    Time Temperature Precipitation Wind Pressure Humidity
    00:00 +27°C° 0 mm 1 mps 745 mmHg 84%
    01:00 +27°C° 0 mm 1 mps 745 mmHg 85%
    02:00 +27°C° 0 mm 1 mps 745 mmHg 86%
    03:00 +26°C° 0 mm 1 mps 745 mmHg 87%
    04:00 +24°C° 0 mm 0 mps 745 mmHg 88%
    05:00 +24°C° 0 mm 0 mps 745 mmHg 87%
    06:00 +25°C° 0 mm 0 mps 746 mmHg 87%
    07:00 +25°C° 0 mm 0 mps 746 mmHg 87%
    08:00 +26°C° 0.3 mm 0 mps 746 mmHg 81%
    09:00 +30°C° 0.3 mm 1 mps 747 mmHg 76%
    10:00 +31°C° 0.3 mm 1 mps 747 mmHg 71%
    11:00 +32°C° 0.5 mm 1 mps 746 mmHg 69%
    12:00 +32°C° 0.5 mm 1 mps 745 mmHg 66%
    13:00 +33°C° 0.5 mm 1 mps 744 mmHg 64%
    14:00 +33°C° 0 mm 1 mps 744 mmHg 64%
    15:00 +33°C° 0 mm 1 mps 743 mmHg 63%
    16:00 +31°C° 0 mm 0 mps 743 mmHg 63%
    17:00 +29°C° 0 mm 0 mps 743 mmHg 68%
    18:00 +28°C° 0 mm 0 mps 744 mmHg 74%
    19:00 +26°C° 0 mm 0 mps 744 mmHg 79%
    20:00 +26°C° 0 mm 0 mps 745 mmHg 81%
    21:00 +25°C° 0 mm 0 mps 745 mmHg 83%
    22:00 +25°C° 0 mm 0 mps 745 mmHg 84%
    23:00 +25°C° 0.1 mm 0 mps 745 mmHg 86%

    22 October, Monday

    Time Temperature Precipitation Wind Pressure Humidity
    00:00 +24°C° 0.1 mm 0 mps 745 mmHg 87%
    01:00 +24°C° 0.1 mm 0 mps 745 mmHg 88%
    02:00 +24°C° 0 mm 0 mps 744 mmHg 89%
    03:00 +24°C° 0 mm 0 mps 744 mmHg 90%
    04:00 +24°C° 0 mm 0 mps 744 mmHg 90%
    05:00 +24°C° 0 mm 0 mps 745 mmHg 89%
    06:00 +24°C° 0 mm 0 mps 745 mmHg 88%
    07:00 +25°C° 0 mm 0 mps 746 mmHg 87%
    08:00 +26°C° 0 mm 0 mps 746 mmHg 80%
    09:00 +28°C° 0 mm 0 mps 746 mmHg 74%
    10:00 +30°C° 0 mm 0 mps 746 mmHg 67%
    11:00 +31°C° 0.1 mm 0 mps 745 mmHg 63%
    12:00 +32°C° 0.1 mm 0 mps 744 mmHg 59%
    13:00 +33°C° 0.1 mm 0 mps 743 mmHg 55%
    14:00 +33°C° 0 mm 0 mps 743 mmHg 56%
    15:00 +32°C° 0 mm 0 mps 743 mmHg 56%
    16:00 +32°C° 0 mm 0 mps 742 mmHg 57%
    17:00 +30°C° 0 mm 0 mps 743 mmHg 63%
    18:00 +29°C° 0 mm 0 mps 743 mmHg 69%
    19:00 +27°C° 0 mm 0 mps 744 mmHg 74%
    20:00 +26°C° 0.6 mm 0 mps 744 mmHg 77%
    21:00 +26°C° 0.6 mm 0 mps 745 mmHg 80%
    22:00 +25°C° 0.6 mm 0 mps 745 mmHg 83%
    23:00 +25°C° 0.3 mm 0 mps 745 mmHg 85%
    Show more